Time,TemperatureF,DewpointF,PressureIn,WindDirection,WindDirectionDegrees,WindSpeedMPH,WindSpeedGustMPH,Humidity,HourlyPrecipIn,Conditions,Clouds,dailyrainin,SolarRadiationWatts/m^2,SoftwareType,DateUTC
2013-03-15 00:00:00,33.7,12.5,29.72,West,268,11.0,11.0,41,0.00,,,0.00,0,WeatherCatV1.14B232,2013-03-15 04:00:00,
2013-03-15 00:01:00,33.7,12.5,29.72,West,279,4.0,15.0,41,0.00,,,0.00,0,WeatherCatV1.14B232,2013-03-15 04:01:00,
2013-03-15 00:06:00,33.6,13.0,29.72,NW,321,2.0,11.0,42,0.00,,,0.00,0,WeatherCatV1.14B232,2013-03-15 04:06:00,
2013-03-15 00:11:00,33.6,13.0,29.72,NNW,341,2.0,7.0,42,0.00,,,0.00,0,WeatherCatV1.14B232,2013-03-15 04:11:00,
2013-03-15 00:16:00,33.5,13.4,29.72,WNW,297,0.0,2.0,43,0.00,,,0.00,0,WeatherCatV1.14B232,2013-03-15 04:16:00,
2013-03-15 00:21:00,33.4,12.8,29.73,WNW,290,4.0,5.0,42,0.00,,,0.00,0,WeatherCatV1.14B232,2013-03-15 04:21:00,
2013-03-15 00:26:00,33.3,13.2,29.73,North,355,2.0,3.0,43,0.00,,,0.00,0,WeatherCatV1.14B232,2013-03-15 04:26:00,
2013-03-15 00:31:00,33.2,13.2,29.73,NW,305,1.0,2.0,43,0.00,,,0.00,0,WeatherCatV1.14B232,2013-03-15 04:31:00,
2013-03-15 00:36:00,33.1,13.6,29.73,NNW,344,1.0,2.0,44,0.00,,,0.00,0,WeatherCatV1.14B232,2013-03-15 04:36:00,
2013-03-15 00:41:00,32.9,12.9,29.73,WNW,288,1.0,5.0,43,0.00,,,0.00,0,WeatherCatV1.14B232,2013-03-15 04:41:00,
2013-03-15 00:46:00,32.8,13.3,29.73,North,5,1.0,7.0,44,0.00,,,0.00,0,WeatherCatV1.14B232,2013-03-15 04:46:00,
2013-03-15 00:51:00,32.8,13.3,29.73,NNW,336,3.0,3.0,44,0.00,,,0.00,0,WeatherCatV1.14B232,2013-03-15 04:51:00,
2013-03-15 00:56:00,32.7,13.2,29.73,West,273,2.0,2.0,44,0.00,,,0.00,0,WeatherCatV1.14B232,2013-03-15 04:56:00,
2013-03-15 01:01:00,32.5,13.5,29.73,NNW,331,5.0,8.0,45,0.00,,,0.00,0,WeatherCatV1.14B232,2013-03-15 05:01:00,
2013-03-15 01:06:00,32.5,13.5,29.73,WNW,288,0.0,8.0,45,0.00,,,0.00,0,WeatherCatV1.14B232,2013-03-15 05:06:00,
2013-03-15 01:11:00,32.4,13.5,29.73,NW,305,3.0,14.0,45,0.00,,,0.00,0,WeatherCatV1.14B232,2013-03-15 05:11:00,
2013-03-15 01:16:00,32.5,13.5,29.72,NNW,342,6.0,8.0,45,0.00,,,0.00,0,WeatherCatV1.14B232,2013-03-15 05:16:00,
2013-03-15 01:21:00,32.5,13.0,29.73,NW,326,4.0,16.0,44,0.00,,,0.00,0,WeatherCatV1.14B232,2013-03-15 05:21:00,
2013-03-15 01:26:00,32.5,13.5,29.73,NW,304,3.0,8.0,45,0.00,,,0.00,0,WeatherCatV1.14B232,2013-03-15 05:26:00,
2013-03-15 01:31:00,32.4,13.5,29.73,NW,319,2.0,5.0,45,0.00,,,0.00,0,WeatherCatV1.14B232,2013-03-15 05:31:00,
2013-03-15 01:36:00,32.4,14.0,29.73,NNW,335,1.0,3.0,46,0.00,,,0.00,0,WeatherCatV1.14B232,2013-03-15 05:36:00,
2013-03-15 01:41:00,32.2,13.8,29.73,NW,311,1.0,3.0,46,0.00,,,0.00,0,WeatherCatV1.14B232,2013-03-15 05:41:00,
2013-03-15 01:46:00,32.1,13.7,29.73,West,272,2.0,6.0,46,0.00,,,0.00,0,WeatherCatV1.14B232,2013-03-15 05:46:00,
2013-03-15 01:51:00,32.0,14.1,29.73,WNW,300,1.0,5.0,47,0.00,,,0.00,0,WeatherCatV1.14B232,2013-03-15 05:51:00,
2013-03-15 01:56:00,31.8,14.4,29.73,West,281,11.0,11.0,48,0.00,,,0.00,0,WeatherCatV1.14B232,2013-03-15 05:56:00,
2013-03-15 02:01:00,31.8,14.4,29.73,North,351,0.0,6.0,48,0.00,,,0.00,0,WeatherCatV1.14B232,2013-03-15 06:01:00,
2013-03-15 02:06:00,31.7,14.3,29.73,West,262,0.0,11.0,48,0.00,,,0.00,0,WeatherCatV1.14B232,2013-03-15 06:06:00,
2013-03-15 02:11:00,31.7,14.8,29.73,NNW,328,0.0,3.0,49,0.00,,,0.00,0,WeatherCatV1.14B232,2013-03-15 06:11:00,
2013-03-15 02:16:00,31.6,14.7,29.73,WSW,248,0.0,0.0,49,0.00,,,0.00,0,WeatherCatV1.14B232,2013-03-15 06:16:00,
2013-03-15 02:21:00,31.6,14.7,29.73,North,5,2.0,10.0,49,0.00,,,0.00,0,WeatherCatV1.14B232,2013-03-15 06:21:00,
2013-03-15 02:26:00,31.5,14.6,29.74,NE,49,1.0,3.0,49,0.00,,,0.00,0,WeatherCatV1.14B232,2013-03-15 06:26:00,
2013-03-15 02:31:00,31.5,14.6,29.74,NNW,334,4.0,8.0,49,0.00,,,0.00,0,WeatherCatV1.14B232,2013-03-15 06:31:00,
2013-03-15 02:36:00,31.5,14.6,29.74,NNW,337,4.0,6.0,49,0.00,,,0.00,0,WeatherCatV1.14B232,2013-03-15 06:36:00,
2013-03-15 02:41:00,31.5,14.6,29.74,WNW,294,0.0,5.0,49,0.00,,,0.00,0,WeatherCatV1.14B232,2013-03-15 06:41:00,
2013-03-15 02:46:00,31.5,14.6,29.74,West,281,1.0,7.0,49,0.00,,,0.00,0,WeatherCatV1.14B232,2013-03-15 06:46:00,
2013-03-15 02:51:00,31.4,14.5,29.73,West,269,2.0,3.0,49,0.00,,,0.00,0,WeatherCatV1.14B232,2013-03-15 06:51:00,
2013-03-15 02:56:00,31.3,14.8,29.73,SW,219,3.0,3.0,50,0.00,,,0.00,0,WeatherCatV1.14B232,2013-03-15 06:56:00,
2013-03-15 03:01:00,31.2,14.8,29.73,WNW,287,1.0,1.0,50,0.00,,,0.00,0,WeatherCatV1.14B232,2013-03-15 07:01:00,
2013-03-15 03:06:00,31.1,14.7,29.73,NW,322,3.0,6.0,50,0.00,,,0.00,0,WeatherCatV1.14B232,2013-03-15 07:06:00,
2013-03-15 03:11:00,31.1,14.7,29.73,North,355,0.0,6.0,50,0.00,,,0.00,0,WeatherCatV1.14B232,2013-03-15 07:11:00,
2013-03-15 03:16:00,31.1,14.7,29.73,NW,325,3.0,4.0,50,0.00,,,0.00,0,WeatherCatV1.14B232,2013-03-15 07:16:00,
2013-03-15 03:21:00,31.1,15.1,29.73,NNW,348,2.0,7.0,51,0.00,,,0.00,0,WeatherCatV1.14B232,2013-03-15 07:21:00,
2013-03-15 03:26:00,31.0,15.0,29.73,NW,309,2.0,7.0,51,0.00,,,0.00,0,WeatherCatV1.14B232,2013-03-15 07:26:00,
2013-03-15 03:31:00,31.0,15.0,29.73,North,0,3.0,8.0,51,0.00,,,0.00,0,WeatherCatV1.14B232,2013-03-15 07:31:00,
2013-03-15 03:36:00,30.9,14.9,29.73,NW,304,1.0,4.0,51,0.00,,,0.00,0,WeatherCatV1.14B232,2013-03-15 07:36:00,
2013-03-15 03:41:00,30.9,14.9,29.73,West,281,1.0,4.0,51,0.00,,,0.00,0,WeatherCatV1.14B232,2013-03-15 07:41:00,
2013-03-15 03:46:00,30.9,15.4,29.73,West,273,0.0,1.0,52,0.00,,,0.00,0,WeatherCatV1.14B232,2013-03-15 07:46:00,
2013-03-15 03:51:00,30.8,15.3,29.73,NNW,344,1.0,3.0,52,0.00,,,0.00,0,WeatherCatV1.14B232,2013-03-15 07:51:00,
2013-03-15 03:56:00,30.7,15.2,29.73,NW,313,2.0,4.0,52,0.00,,,0.00,0,WeatherCatV1.14B232,2013-03-15 07:56:00,
2013-03-15 04:01:00,30.6,15.1,29.73,WNW,302,0.0,3.0,52,0.00,,,0.00,0,WeatherCatV1.14B232,2013-03-15 08:01:00,
2013-03-15 04:06:00,30.6,15.5,29.72,WNW,298,0.0,3.0,53,0.00,,,0.00,0,WeatherCatV1.14B232,2013-03-15 08:06:00,
2013-03-15 04:11:00,30.5,15.9,29.72,West,279,0.0,2.0,54,0.00,,,0.00,0,WeatherCatV1.14B232,2013-03-15 08:11:00,
2013-03-15 04:16:00,30.4,15.8,29.72,West,274,1.0,3.0,54,0.00,,,0.00,0,WeatherCatV1.14B232,2013-03-15 08:16:00,
2013-03-15 04:21:00,30.3,15.7,29.72,West,281,0.0,0.0,54,0.00,,,0.00,0,WeatherCatV1.14B232,2013-03-15 08:21:00,
2013-03-15 04:26:00,30.3,15.7,29.72,WNW,294,0.0,4.0,54,0.00,,,0.00,0,WeatherCatV1.14B232,2013-03-15 08:26:00,
2013-03-15 04:31:00,30.2,15.6,29.72,NW,311,2.0,4.0,54,0.00,,,0.00,0,WeatherCatV1.14B232,2013-03-15 08:31:00,
2013-03-15 04:36:00,30.2,15.6,29.72,West,279,0.0,3.0,54,0.00,,,0.00,0,WeatherCatV1.14B232,2013-03-15 08:36:00,
2013-03-15 04:41:00,30.1,15.9,29.72,WSW,254,0.0,1.0,55,0.00,,,0.00,0,WeatherCatV1.14B232,2013-03-15 08:41:00,
2013-03-15 04:46:00,30.0,15.8,29.72,WSW,255,0.0,0.0,55,0.00,,,0.00,0,WeatherCatV1.14B232,2013-03-15 08:46:00,
2013-03-15 04:51:00,29.9,16.1,29.72,WNW,286,0.0,2.0,56,0.00,,,0.00,0,WeatherCatV1.14B232,2013-03-15 08:51:00,
2013-03-15 04:56:00,29.8,16.0,29.72,WSW,250,2.0,2.0,56,0.00,,,0.00,0,WeatherCatV1.14B232,2013-03-15 08:56:00,
2013-03-15 05:01:00,29.8,16.0,29.71,WSW,248,0.0,0.0,56,0.00,,,0.00,0,WeatherCatV1.14B232,2013-03-15 09:01:00,
2013-03-15 05:06:00,29.7,15.9,29.71,WSW,249,0.0,1.0,56,0.00,,,0.00,0,WeatherCatV1.14B232,2013-03-15 09:06:00,
2013-03-15 05:11:00,29.6,16.3,29.71,WSW,248,0.0,0.0,57,0.00,,,0.00,0,WeatherCatV1.14B232,2013-03-15 09:11:00,
2013-03-15 05:16:00,29.5,16.6,29.72,WSW,249,0.0,1.0,58,0.00,,,0.00,0,WeatherCatV1.14B232,2013-03-15 09:16:00,
2013-03-15 05:21:00,29.4,16.5,29.72,WSW,248,0.0,0.0,58,0.00,,,0.00,0,WeatherCatV1.14B232,2013-03-15 09:21:00,
2013-03-15 05:26:00,29.3,16.4,29.72,WSW,248,1.0,2.0,58,0.00,,,0.00,0,WeatherCatV1.14B232,2013-03-15 09:26:00,
2013-03-15 05:31:00,29.3,16.8,29.72,WSW,248,0.0,1.0,59,0.00,,,0.00,0,WeatherCatV1.14B232,2013-03-15 09:31:00,
2013-03-15 05:36:00,29.2,16.3,29.72,WSW,248,0.0,0.0,58,0.00,,,0.00,0,WeatherCatV1.14B232,2013-03-15 09:36:00,
2013-03-15 05:41:00,29.1,16.2,29.72,WSW,249,0.0,1.0,58,0.00,,,0.00,0,WeatherCatV1.14B232,2013-03-15 09:41:00,
2013-03-15 05:46:00,29.1,16.6,29.72,WSW,250,0.0,1.0,59,0.00,,,0.00,0,WeatherCatV1.14B232,2013-03-15 09:46:00,
2013-03-15 05:51:00,29.0,16.5,29.72,WSW,250,0.0,0.0,59,0.00,,,0.00,0,WeatherCatV1.14B232,2013-03-15 09:51:00,
2013-03-15 05:57:00,29.0,16.5,29.73,WSW,250,0.0,2.0,59,0.00,,,0.00,0,WeatherCatV1.14B232,2013-03-15 09:57:00,
2013-03-15 06:02:00,29.0,17.3,29.73,WSW,250,0.0,0.0,61,0.00,,,0.00,0,WeatherCatV1.14B232,2013-03-15 10:02:00,
2013-03-15 06:07:00,28.9,16.8,29.73,West,274,1.0,2.0,60,0.00,,,0.00,0,WeatherCatV1.14B232,2013-03-15 10:07:00,
2013-03-15 06:12:00,28.8,16.7,29.73,West,263,0.0,1.0,60,0.00,,,0.00,0,WeatherCatV1.14B232,2013-03-15 10:12:00,
2013-03-15 06:17:00,28.8,16.3,29.73,West,275,0.0,1.0,59,0.00,,,0.00,0,WeatherCatV1.14B232,2013-03-15 10:17:00,
2013-03-15 06:22:00,28.7,16.2,29.73,West,271,0.0,4.0,59,0.00,,,0.00,0,WeatherCatV1.14B232,2013-03-15 10:22:00,
2013-03-15 06:27:00,28.7,16.6,29.73,West,272,1.0,3.0,60,0.00,,,0.00,0,WeatherCatV1.14B232,2013-03-15 10:27:00,
2013-03-15 06:32:00,28.7,16.2,29.73,West,264,0.0,1.0,59,0.00,,,0.00,0,WeatherCatV1.14B232,2013-03-15 10:32:00,
2013-03-15 06:37:00,28.6,16.5,29.73,WNW,289,0.0,1.0,60,0.00,,,0.00,0,WeatherCatV1.14B232,2013-03-15 10:37:00,
2013-03-15 06:42:00,28.6,16.5,29.73,WNW,289,0.0,1.0,60,0.00,,,0.00,0,WeatherCatV1.14B232,2013-03-15 10:42:00,
2013-03-15 06:47:00,28.5,16.4,29.73,WNW,289,0.0,2.0,60,0.00,,,0.00,0,WeatherCatV1.14B232,2013-03-15 10:47:00,
2013-03-15 06:52:00,28.5,16.4,29.73,West,267,0.0,2.0,60,0.00,,,0.00,0,WeatherCatV1.14B232,2013-03-15 10:52:00,
2013-03-15 06:57:00,28.4,16.3,29.73,West,267,0.0,1.0,60,0.00,,,0.00,0,WeatherCatV1.14B232,2013-03-15 10:57:00,
2013-03-15 07:02:00,28.3,16.2,29.73,WNW,283,0.0,0.0,60,0.00,,,0.00,0,WeatherCatV1.14B232,2013-03-15 11:02:00,
2013-03-15 07:07:00,28.2,16.1,29.73,WNW,284,0.0,1.0,60,0.00,,,0.00,0,WeatherCatV1.14B232,2013-03-15 11:07:00,
2013-03-15 07:12:00,28.1,16.4,29.73,WNW,283,0.0,0.0,61,0.00,,,0.00,0,WeatherCatV1.14B232,2013-03-15 11:12:00,
2013-03-15 07:17:00,28.1,16.4,29.73,WNW,283,0.0,0.0,61,0.00,,,0.00,0,WeatherCatV1.14B232,2013-03-15 11:17:00,
2013-03-15 07:22:00,28.0,16.3,29.73,WNW,295,0.0,1.0,61,0.00,,,0.00,0,WeatherCatV1.14B232,2013-03-15 11:22:00,
2013-03-15 07:27:00,27.9,16.6,29.73,West,277,1.0,3.0,62,0.00,,,0.00,5,WeatherCatV1.14B232,2013-03-15 11:27:00,
2013-03-15 07:32:00,27.8,16.5,29.73,WSW,258,0.0,1.0,62,0.00,,,0.00,9,WeatherCatV1.14B232,2013-03-15 11:32:00,
2013-03-15 07:37:00,27.8,16.5,29.73,WSW,258,0.0,1.0,62,0.00,,,0.00,14,WeatherCatV1.14B232,2013-03-15 11:37:00,
2013-03-15 07:42:00,27.8,16.9,29.74,WSW,244,2.0,3.0,63,0.00,,,0.00,25,WeatherCatV1.14B232,2013-03-15 11:42:00,
2013-03-15 07:47:00,27.8,16.9,29.74,WNW,284,2.0,5.0,63,0.00,,,0.00,18,WeatherCatV1.14B232,2013-03-15 11:47:00,
2013-03-15 07:52:00,27.9,17.0,29.74,SW,232,2.0,3.0,63,0.00,,,0.00,18,WeatherCatV1.14B232,2013-03-15 11:52:00,
2013-03-15 07:57:00,28.1,17.2,29.74,WSW,240,0.0,2.0,63,0.00,,,0.00,19,WeatherCatV1.14B232,2013-03-15 11:57:00,
2013-03-15 08:02:00,28.2,16.9,29.74,WNW,297,2.0,5.0,62,0.00,,,0.00,21,WeatherCatV1.14B232,2013-03-15 12:02:00,
2013-03-15 08:07:00,28.4,17.4,29.74,WSW,250,2.0,3.0,63,0.00,,,0.00,28,WeatherCatV1.14B232,2013-03-15 12:07:00,
2013-03-15 08:12:00,28.6,17.3,29.73,WNW,282,2.0,5.0,62,0.00,,,0.00,25,WeatherCatV1.14B232,2013-03-15 12:12:00,
2013-03-15 08:17:00,28.9,17.5,29.73,West,277,2.0,4.0,62,0.00,,,0.00,33,WeatherCatV1.14B232,2013-03-15 12:17:00,
2013-03-15 08:22:00,29.2,17.8,29.73,WNW,291,2.0,2.0,62,0.00,,,0.00,26,WeatherCatV1.14B232,2013-03-15 12:22:00,
2013-03-15 08:27:00,29.4,17.6,29.73,West,270,3.0,6.0,61,0.00,,,0.00,54,WeatherCatV1.14B232,2013-03-15 12:27:00,
2013-03-15 08:32:00,29.6,17.4,29.73,North,0,0.0,5.0,60,0.00,,,0.00,56,WeatherCatV1.14B232,2013-03-15 12:32:00,
2013-03-15 08:37:00,29.8,17.6,29.73,WNW,285,3.0,4.0,60,0.00,,,0.00,47,WeatherCatV1.14B232,2013-03-15 12:37:00,
2013-03-15 08:42:00,30.0,17.8,29.73,WSW,241,1.0,7.0,60,0.00,,,0.00,83,WeatherCatV1.14B232,2013-03-15 12:42:00,
2013-03-15 08:47:00,30.2,18.0,29.73,WNW,284,3.0,5.0,60,0.00,,,0.00,102,WeatherCatV1.14B232,2013-03-15 12:47:00,
2013-03-15 08:52:00,30.5,17.9,29.73,West,273,2.0,9.0,59,0.00,,,0.00,102,WeatherCatV1.14B232,2013-03-15 12:52:00,
2013-03-15 08:57:00,30.6,18.0,29.73,NW,312,2.0,6.0,59,0.00,,,0.00,97,WeatherCatV1.14B232,2013-03-15 12:57:00,
2013-03-15 09:02:00,30.8,17.4,29.73,WSW,243,5.0,6.0,57,0.00,,,0.00,127,WeatherCatV1.14B232,2013-03-15 13:02:00,
2013-03-15 09:07:00,31.0,17.6,29.73,West,272,3.0,8.0,57,0.00,,,0.00,107,WeatherCatV1.14B232,2013-03-15 13:07:00,
2013-03-15 09:12:00,31.1,17.7,29.73,West,265,3.0,5.0,57,0.00,,,0.00,134,WeatherCatV1.14B232,2013-03-15 13:12:00,
2013-03-15 09:17:00,31.3,17.9,29.72,SW,221,3.0,5.0,57,0.00,,,0.00,107,WeatherCatV1.14B232,2013-03-15 13:17:00,
2013-03-15 09:22:00,31.4,17.5,29.72,SW,232,3.0,6.0,56,0.00,,,0.00,113,WeatherCatV1.14B232,2013-03-15 13:22:00,
2013-03-15 09:27:00,31.5,18.0,29.72,SW,236,0.0,4.0,57,0.00,,,0.00,111,WeatherCatV1.14B232,2013-03-15 13:27:00,
2013-03-15 09:32:00,31.6,18.1,29.72,West,261,0.0,4.0,57,0.00,,,0.00,114,WeatherCatV1.14B232,2013-03-15 13:32:00,
2013-03-15 09:37:00,31.8,18.3,29.71,NW,310,0.0,3.0,57,0.00,,,0.00,158,WeatherCatV1.14B232,2013-03-15 13:37:00,
2013-03-15 09:42:00,32.1,18.2,29.71,West,263,3.0,5.0,56,0.00,,,0.00,171,WeatherCatV1.14B232,2013-03-15 13:42:00,
2013-03-15 09:47:00,32.5,17.7,29.71,SW,220,2.0,7.0,54,0.00,,,0.00,165,WeatherCatV1.14B232,2013-03-15 13:47:00,
2013-03-15 09:52:00,32.6,18.2,29.70,NW,319,0.0,2.0,55,0.00,,,0.00,190,WeatherCatV1.14B232,2013-03-15 13:52:00,
2013-03-15 09:57:00,32.9,18.5,29.70,SSW,194,6.0,6.0,55,0.00,,,0.00,158,WeatherCatV1.14B232,2013-03-15 13:57:00,
2013-03-15 10:02:00,33.0,17.8,29.70,South,182,1.0,5.0,53,0.00,,,0.00,116,WeatherCatV1.14B232,2013-03-15 14:02:00,
2013-03-15 10:07:00,33.2,17.9,29.70,NW,313,1.0,6.0,53,0.00,,,0.00,67,WeatherCatV1.14B232,2013-03-15 14:07:00,
2013-03-15 10:12:00,33.5,18.2,29.70,SW,235,4.0,6.0,53,0.00,,,0.00,330,WeatherCatV1.14B232,2013-03-15 14:12:00,
2013-03-15 10:17:00,33.8,17.6,29.70,West,264,4.0,7.0,51,0.00,,,0.00,178,WeatherCatV1.14B232,2013-03-15 14:17:00,
2013-03-15 10:22:00,34.1,17.4,29.69,SW,229,2.0,7.0,50,0.00,,,0.00,144,WeatherCatV1.14B232,2013-03-15 14:22:00,
2013-03-15 10:27:00,34.4,17.7,29.69,SW,227,6.0,6.0,50,0.00,,,0.00,169,WeatherCatV1.14B232,2013-03-15 14:27:00,
2013-03-15 10:32:00,34.6,18.4,29.68,WNW,300,0.0,2.0,51,0.00,,,0.00,139,WeatherCatV1.14B232,2013-03-15 14:32:00,
2013-03-15 10:37:00,35.0,17.3,29.68,SSE,167,7.0,7.0,48,0.00,,,0.00,253,WeatherCatV1.14B232,2013-03-15 14:37:00,
2013-03-15 10:42:00,35.3,17.6,29.68,SSW,212,1.0,6.0,48,0.00,,,0.00,127,WeatherCatV1.14B232,2013-03-15 14:42:00,
2013-03-15 10:47:00,35.6,17.9,29.68,SW,234,2.0,5.0,48,0.00,,,0.00,127,WeatherCatV1.14B232,2013-03-15 14:47:00,
2013-03-15 10:52:00,36.1,18.8,29.67,WNW,282,4.0,10.0,49,0.00,,,0.00,411,WeatherCatV1.14B232,2013-03-15 14:52:00,
2013-03-15 10:57:00,36.5,19.6,29.67,SSW,197,3.0,5.0,50,0.00,,,0.00,329,WeatherCatV1.14B232,2013-03-15 14:57:00,
2013-03-15 11:02:00,36.7,18.9,29.67,WNW,301,2.0,7.0,48,0.00,,,0.00,255,WeatherCatV1.14B232,2013-03-15 15:02:00,
2013-03-15 11:07:00,36.9,19.5,29.67,SW,234,8.0,8.0,49,0.00,,,0.00,202,WeatherCatV1.14B232,2013-03-15 15:07:00,
2013-03-15 11:12:00,37.1,20.2,29.66,SSW,205,1.0,6.0,50,0.00,,,0.00,311,WeatherCatV1.14B232,2013-03-15 15:12:00,
2013-03-15 11:17:00,37.7,21.2,29.66,SW,231,1.0,7.0,51,0.00,,,0.00,91,WeatherCatV1.14B232,2013-03-15 15:17:00,
2013-03-15 11:22:00,38.2,21.7,29.65,SSW,192,8.0,8.0,51,0.00,,,0.00,241,WeatherCatV1.14B232,2013-03-15 15:22:00,
2013-03-15 11:27:00,38.6,21.1,29.65,WSW,246,6.0,7.0,49,0.00,,,0.00,244,WeatherCatV1.14B232,2013-03-15 15:27:00,
2013-03-15 11:32:00,38.8,21.8,29.65,SW,221,3.0,6.0,50,0.00,,,0.00,236,WeatherCatV1.14B232,2013-03-15 15:32:00,
2013-03-15 11:37:00,39.1,21.6,29.64,SSW,207,0.0,6.0,49,0.00,,,0.00,274,WeatherCatV1.14B232,2013-03-15 15:37:00,
2013-03-15 11:42:00,39.5,22.9,29.64,SSE,157,2.0,7.0,51,0.00,,,0.00,381,WeatherCatV1.14B232,2013-03-15 15:42:00,
2013-03-15 11:47:00,40.1,23.0,29.64,West,269,7.0,8.0,50,0.00,,,0.00,323,WeatherCatV1.14B232,2013-03-15 15:47:00,
2013-03-15 11:52:00,40.2,23.1,29.64,WSW,255,1.0,5.0,50,0.00,,,0.00,392,WeatherCatV1.14B232,2013-03-15 15:52:00,
2013-03-15 11:57:00,40.6,23.9,29.63,WSW,244,4.0,9.0,51,0.00,,,0.00,438,WeatherCatV1.14B232,2013-03-15 15:57:00,
2013-03-15 12:02:00,41.2,23.5,29.63,SSE,155,0.0,8.0,49,0.00,,,0.00,512,WeatherCatV1.14B232,2013-03-15 16:02:00,
2013-03-15 12:07:00,41.7,24.0,29.63,SW,236,5.0,6.0,49,0.00,,,0.00,345,WeatherCatV1.14B232,2013-03-15 16:07:00,
2013-03-15 12:12:00,41.6,22.9,29.63,SW,214,6.0,11.0,47,0.00,,,0.00,515,WeatherCatV1.14B232,2013-03-15 16:12:00,
2013-03-15 12:17:00,41.2,23.5,29.62,WNW,288,1.0,5.0,49,0.00,,,0.00,255,WeatherCatV1.14B232,2013-03-15 16:17:00,
2013-03-15 12:22:00,41.2,23.0,29.62,West,279,8.0,8.0,48,0.00,,,0.00,248,WeatherCatV1.14B232,2013-03-15 16:22:00,
2013-03-15 12:27:00,41.0,22.3,29.61,WSW,238,10.0,12.0,47,0.00,,,0.00,297,WeatherCatV1.14B232,2013-03-15 16:27:00,
2013-03-15 12:32:00,40.9,22.7,29.61,SW,226,5.0,7.0,48,0.00,,,0.00,193,WeatherCatV1.14B232,2013-03-15 16:32:00,
2013-03-15 12:37:00,41.0,22.8,29.61,WSW,244,3.0,8.0,48,0.00,,,0.00,176,WeatherCatV1.14B232,2013-03-15 16:37:00,
2013-03-15 12:42:00,40.9,22.7,29.61,SW,224,3.0,11.0,48,0.00,,,0.00,195,WeatherCatV1.14B232,2013-03-15 16:42:00,
2013-03-15 12:47:00,40.8,22.6,29.60,West,276,4.0,9.0,48,0.00,,,0.00,225,WeatherCatV1.14B232,2013-03-15 16:47:00,
2013-03-15 12:52:00,40.8,22.6,29.60,SW,219,6.0,8.0,48,0.00,,,0.00,211,WeatherCatV1.14B232,2013-03-15 16:52:00,
2013-03-15 12:57:00,40.8,23.1,29.60,WNW,292,4.0,6.0,49,0.00,,,0.00,243,WeatherCatV1.14B232,2013-03-15 16:57:00,
2013-03-15 13:02:00,40.9,22.7,29.59,West,280,10.0,11.0,48,0.00,,,0.00,156,WeatherCatV1.14B232,2013-03-15 17:02:00,
2013-03-15 13:07:00,40.9,23.2,29.59,West,272,4.0,4.0,49,0.00,,,0.00,142,WeatherCatV1.14B232,2013-03-15 17:07:00,
2013-03-15 13:12:00,41.0,22.8,29.59,West,273,1.0,8.0,48,0.00,,,0.00,128,WeatherCatV1.14B232,2013-03-15 17:12:00,
2013-03-15 13:17:00,41.0,23.3,29.58,West,281,2.0,7.0,49,0.00,,,0.00,151,WeatherCatV1.14B232,2013-03-15 17:17:00,
2013-03-15 13:22:00,41.0,23.3,29.58,West,267,4.0,7.0,49,0.00,,,0.00,188,WeatherCatV1.14B232,2013-03-15 17:22:00,
2013-03-15 13:27:00,41.1,23.4,29.58,NNW,340,3.0,9.0,49,0.00,,,0.00,132,WeatherCatV1.14B232,2013-03-15 17:27:00,
2013-03-15 13:32:00,41.1,22.9,29.58,West,267,6.0,6.0,48,0.00,,,0.00,146,WeatherCatV1.14B232,2013-03-15 17:32:00,
2013-03-15 13:37:00,41.2,23.0,29.58,SW,232,2.0,8.0,48,0.00,,,0.00,153,WeatherCatV1.14B232,2013-03-15 17:37:00,
2013-03-15 13:42:00,41.2,23.0,29.57,WNW,286,0.0,9.0,48,0.00,,,0.00,200,WeatherCatV1.14B232,2013-03-15 17:42:00,
2013-03-15 13:47:00,41.6,23.9,29.57,WNW,293,8.0,8.0,49,0.00,,,0.00,156,WeatherCatV1.14B232,2013-03-15 17:47:00,
2013-03-15 13:52:00,41.7,24.0,29.57,NNW,331,6.0,9.0,49,0.00,,,0.00,197,WeatherCatV1.14B232,2013-03-15 17:52:00,
2013-03-15 13:57:00,41.9,24.1,29.57,SW,236,4.0,10.0,49,0.00,,,0.00,243,WeatherCatV1.14B232,2013-03-15 17:57:00,
2013-03-15 14:02:00,42.1,24.8,29.56,SSW,209,7.0,13.0,50,0.00,,,0.00,251,WeatherCatV1.14B232,2013-03-15 18:02:00,
2013-03-15 14:07:00,42.5,24.7,29.56,WNW,301,2.0,8.0,49,0.00,,,0.00,302,WeatherCatV1.14B232,2013-03-15 18:07:00,
2013-03-15 14:12:00,43.0,25.2,29.56,SSW,207,5.0,7.0,49,0.00,,,0.00,373,WeatherCatV1.14B232,2013-03-15 18:12:00,
2013-03-15 14:17:00,43.4,25.5,29.56,SW,229,1.0,11.0,49,0.00,,,0.00,404,WeatherCatV1.14B232,2013-03-15 18:17:00,
2013-03-15 14:22:00,43.6,25.2,29.55,SSW,210,9.0,10.0,48,0.00,,,0.00,373,WeatherCatV1.14B232,2013-03-15 18:22:00,
2013-03-15 14:27:00,43.7,25.3,29.55,WSW,254,5.0,8.0,48,0.00,,,0.00,214,WeatherCatV1.14B232,2013-03-15 18:27:00,
2013-03-15 14:32:00,43.4,25.0,29.55,South,170,6.0,11.0,48,0.00,,,0.00,214,WeatherCatV1.14B232,2013-03-15 18:32:00,
2013-03-15 14:37:00,43.3,25.4,29.54,West,279,4.0,14.0,49,0.00,,,0.00,183,WeatherCatV1.14B232,2013-03-15 18:37:00,
2013-03-15 14:42:00,43.2,25.3,29.54,WSW,246,4.0,12.0,49,0.00,,,0.00,251,WeatherCatV1.14B232,2013-03-15 18:42:00,
2013-03-15 14:47:00,43.4,26.0,29.54,SSW,205,3.0,11.0,50,0.00,,,0.00,392,WeatherCatV1.14B232,2013-03-15 18:47:00,
2013-03-15 14:52:00,44.2,26.8,29.53,SW,217,4.0,12.0,50,0.00,,,0.00,232,WeatherCatV1.14B232,2013-03-15 18:52:00,
2013-03-15 14:57:00,44.2,25.8,29.53,SW,234,2.0,12.0,48,0.00,,,0.00,204,WeatherCatV1.14B232,2013-03-15 18:57:00,
2013-03-15 15:02:00,44.1,25.7,29.53,WSW,238,6.0,11.0,48,0.00,,,0.00,186,WeatherCatV1.14B232,2013-03-15 19:02:00,
2013-03-15 15:07:00,44.0,26.1,29.53,South,188,7.0,7.0,49,0.00,,,0.00,158,WeatherCatV1.14B232,2013-03-15 19:07:00,
2013-03-15 15:12:00,43.8,25.9,29.53,SSW,211,9.0,13.0,49,0.00,,,0.00,146,WeatherCatV1.14B232,2013-03-15 19:12:00,
2013-03-15 15:17:00,43.6,25.7,29.52,SW,219,9.0,13.0,49,0.00,,,0.00,158,WeatherCatV1.14B232,2013-03-15 19:17:00,
2013-03-15 15:22:00,43.6,26.2,29.51,WSW,246,4.0,9.0,50,0.00,,,0.00,227,WeatherCatV1.14B232,2013-03-15 19:22:00,
2013-03-15 15:27:00,43.8,26.4,29.51,SSW,211,7.0,11.0,50,0.00,,,0.00,202,WeatherCatV1.14B232,2013-03-15 19:27:00,
2013-03-15 15:32:00,44.3,26.8,29.51,SSW,198,1.0,7.0,50,0.00,,,0.00,550,WeatherCatV1.14B232,2013-03-15 19:32:00,
2013-03-15 15:37:00,45.6,27.6,29.51,West,281,2.0,10.0,49,0.00,,,0.00,499,WeatherCatV1.14B232,2013-03-15 19:37:00,
2013-03-15 15:42:00,46.3,27.2,29.50,West,276,9.0,12.0,47,0.00,,,0.00,469,WeatherCatV1.14B232,2013-03-15 19:42:00,
2013-03-15 15:47:00,46.2,27.1,29.50,West,261,5.0,8.0,47,0.00,,,0.00,497,WeatherCatV1.14B232,2013-03-15 19:47:00,
2013-03-15 15:52:00,46.1,27.0,29.50,West,274,9.0,9.0,47,0.00,,,0.00,167,WeatherCatV1.14B232,2013-03-15 19:52:00,
2013-03-15 15:57:00,45.9,26.8,29.50,SW,217,1.0,11.0,47,0.00,,,0.00,241,WeatherCatV1.14B232,2013-03-15 19:57:00,
2013-03-15 16:02:00,45.7,26.6,29.49,WNW,285,4.0,10.0,47,0.00,,,0.00,230,WeatherCatV1.14B232,2013-03-15 20:02:00,
2013-03-15 16:07:00,45.7,26.6,29.49,SSW,194,3.0,10.0,47,0.00,,,0.00,237,WeatherCatV1.14B232,2013-03-15 20:07:00,
2013-03-15 16:12:00,45.6,26.5,29.49,SW,224,5.0,7.0,47,0.00,,,0.00,260,WeatherCatV1.14B232,2013-03-15 20:12:00,
2013-03-15 16:17:00,45.7,27.1,29.48,WSW,252,3.0,11.0,48,0.00,,,0.00,287,WeatherCatV1.14B232,2013-03-15 20:17:00,
2013-03-15 16:22:00,46.2,27.6,29.48,West,259,3.0,7.0,48,0.00,,,0.00,487,WeatherCatV1.14B232,2013-03-15 20:22:00,
2013-03-15 16:27:00,47.0,27.8,29.48,SW,218,6.0,17.0,47,0.00,,,0.00,387,WeatherCatV1.14B232,2013-03-15 20:27:00,
2013-03-15 16:32:00,47.1,27.4,29.48,WSW,243,6.0,11.0,46,0.00,,,0.00,141,WeatherCatV1.14B232,2013-03-15 20:32:00,
2013-03-15 16:37:00,46.9,27.2,29.48,West,279,2.0,13.0,46,0.00,,,0.00,120,WeatherCatV1.14B232,2013-03-15 20:37:00,
2013-03-15 16:42:00,46.6,27.5,29.48,SW,228,8.0,11.0,47,0.00,,,0.00,104,WeatherCatV1.14B232,2013-03-15 20:42:00,
2013-03-15 16:47:00,46.4,27.3,29.48,West,279,4.0,9.0,47,0.00,,,0.00,91,WeatherCatV1.14B232,2013-03-15 20:47:00,
2013-03-15 16:52:00,46.3,27.2,29.48,WSW,250,4.0,13.0,47,0.00,,,0.00,77,WeatherCatV1.14B232,2013-03-15 20:52:00,
2013-03-15 16:57:00,46.2,27.1,29.47,NNW,343,4.0,11.0,47,0.00,,,0.00,74,WeatherCatV1.14B232,2013-03-15 20:57:00,
2013-03-15 17:02:00,46.2,27.1,29.47,SSW,195,4.0,11.0,47,0.00,,,0.00,70,WeatherCatV1.14B232,2013-03-15 21:02:00,
2013-03-15 17:07:00,46.2,27.1,29.47,WNW,286,8.0,13.0,47,0.00,,,0.00,76,WeatherCatV1.14B232,2013-03-15 21:07:00,
2013-03-15 17:12:00,46.2,27.6,29.47,SSW,207,6.0,8.0,48,0.00,,,0.00,60,WeatherCatV1.14B232,2013-03-15 21:12:00,
2013-03-15 17:17:00,46.3,27.2,29.47,West,272,3.0,7.0,47,0.00,,,0.00,51,WeatherCatV1.14B232,2013-03-15 21:17:00,
2013-03-15 17:22:00,46.4,27.8,29.47,SW,215,4.0,8.0,48,0.00,,,0.00,60,WeatherCatV1.14B232,2013-03-15 21:22:00,
2013-03-15 17:27:00,46.5,27.9,29.47,SW,220,3.0,10.0,48,0.00,,,0.00,49,WeatherCatV1.14B232,2013-03-15 21:27:00,
2013-03-15 17:32:00,46.5,27.9,29.47,West,279,2.0,6.0,48,0.00,,,0.00,40,WeatherCatV1.14B232,2013-03-15 21:32:00,
2013-03-15 17:37:00,46.7,28.1,29.47,West,271,1.0,6.0,48,0.00,,,0.00,35,WeatherCatV1.14B232,2013-03-15 21:37:00,
2013-03-15 17:42:00,46.7,28.1,29.47,West,280,5.0,8.0,48,0.00,,,0.00,33,WeatherCatV1.14B232,2013-03-15 21:42:00,
2013-03-15 17:47:00,46.7,28.1,29.47,SW,228,1.0,4.0,48,0.00,,,0.00,28,WeatherCatV1.14B232,2013-03-15 21:47:00,
2013-03-15 17:52:00,46.7,28.6,29.47,WSW,249,4.0,5.0,49,0.00,,,0.00,28,WeatherCatV1.14B232,2013-03-15 21:52:00,
2013-03-15 17:57:00,46.8,28.2,29.47,WSW,237,0.0,8.0,48,0.00,,,0.00,26,WeatherCatV1.14B232,2013-03-15 21:57:00,
2013-03-15 18:02:00,46.8,28.2,29.47,WSW,240,1.0,6.0,48,0.00,,,0.00,23,WeatherCatV1.14B232,2013-03-15 22:02:00,
2013-03-15 18:07:00,46.8,28.2,29.47,WSW,244,3.0,6.0,48,0.00,,,0.00,21,WeatherCatV1.14B232,2013-03-15 22:07:00,
2013-03-15 18:12:00,46.9,28.2,29.47,WSW,249,2.0,7.0,48,0.00,,,0.00,16,WeatherCatV1.14B232,2013-03-15 22:12:00,
2013-03-15 18:17:00,46.9,28.2,29.47,SW,225,3.0,5.0,48,0.00,,,0.00,16,WeatherCatV1.14B232,2013-03-15 22:17:00,
2013-03-15 18:22:00,46.9,28.2,29.47,WSW,251,1.0,5.0,48,0.00,,,0.00,12,WeatherCatV1.14B232,2013-03-15 22:22:00,
2013-03-15 18:27:00,46.9,28.2,29.46,SW,223,4.0,4.0,48,0.00,,,0.00,12,WeatherCatV1.14B232,2013-03-15 22:27:00,
2013-03-15 18:32:00,46.9,28.2,29.46,SW,236,2.0,7.0,48,0.00,,,0.00,12,WeatherCatV1.14B232,2013-03-15 22:32:00,
2013-03-15 18:37:00,46.9,28.2,29.46,SW,219,4.0,4.0,48,0.00,,,0.00,11,WeatherCatV1.14B232,2013-03-15 22:37:00,
2013-03-15 18:42:00,46.9,28.2,29.47,WSW,252,3.0,5.0,48,0.00,,,0.00,7,WeatherCatV1.14B232,2013-03-15 22:42:00,
2013-03-15 18:47:00,46.9,28.2,29.47,SW,236,4.0,4.0,48,0.00,,,0.00,5,WeatherCatV1.14B232,2013-03-15 22:47:00,
2013-03-15 18:52:00,46.9,28.2,29.47,SW,229,0.0,1.0,48,0.00,,,0.00,0,WeatherCatV1.14B232,2013-03-15 22:52:00,
2013-03-15 18:57:00,46.9,28.8,29.47,WNW,286,1.0,3.0,49,0.00,,,0.00,0,WeatherCatV1.14B232,2013-03-15 22:57:00,
2013-03-15 19:02:00,46.9,28.8,29.47,SW,222,1.0,3.0,49,0.00,,,0.00,0,WeatherCatV1.14B232,2013-03-15 23:02:00,
2013-03-15 19:07:00,46.9,28.8,29.47,WSW,241,1.0,3.0,49,0.00,,,0.00,0,WeatherCatV1.14B232,2013-03-15 23:07:00,
2013-03-15 19:12:00,46.9,28.8,29.47,WSW,241,0.0,5.0,49,0.00,,,0.00,0,WeatherCatV1.14B232,2013-03-15 23:12:00,
2013-03-15 19:17:00,46.9,28.8,29.47,WSW,242,0.0,2.0,49,0.00,,,0.00,0,WeatherCatV1.14B232,2013-03-15 23:17:00,
2013-03-15 19:22:00,46.9,28.8,29.47,WSW,244,1.0,3.0,49,0.00,,,0.00,0,WeatherCatV1.14B232,2013-03-15 23:22:00,
2013-03-15 19:27:00,46.9,28.8,29.47,West,271,2.0,4.0,49,0.00,,,0.00,0,WeatherCatV1.14B232,2013-03-15 23:27:00,
2013-03-15 19:32:00,46.9,28.8,29.47,West,265,0.0,1.0,49,0.00,,,0.00,0,WeatherCatV1.14B232,2013-03-15 23:32:00,
2013-03-15 19:37:00,46.8,29.2,29.47,SW,229,0.0,3.0,50,0.00,,,0.00,0,WeatherCatV1.14B232,2013-03-15 23:37:00,
2013-03-15 19:42:00,46.8,28.7,29.47,WSW,255,2.0,3.0,49,0.00,,,0.00,0,WeatherCatV1.14B232,2013-03-15 23:42:00,
2013-03-15 19:47:00,46.8,29.2,29.47,West,269,0.0,3.0,50,0.00,,,0.00,0,WeatherCatV1.14B232,2013-03-15 23:47:00,
2013-03-15 19:52:00,46.8,29.2,29.48,WNW,284,0.0,2.0,50,0.00,,,0.00,0,WeatherCatV1.14B232,2013-03-15 23:52:00,
2013-03-15 19:57:00,46.7,29.1,29.48,West,281,0.0,1.0,50,0.00,,,0.00,0,WeatherCatV1.14B232,2013-03-15 23:57:00,
2013-03-15 20:02:00,46.7,29.1,29.48,NW,320,1.0,5.0,50,0.00,,,0.00,0,WeatherCatV1.14B232,2013-03-16 00:02:00,
2013-03-15 20:07:00,46.6,29.0,29.48,NW,318,0.0,3.0,50,0.00,,,0.00,0,WeatherCatV1.14B232,2013-03-16 00:07:00,
2013-03-15 20:12:00,46.6,29.0,29.48,NW,323,1.0,2.0,50,0.00,,,0.00,0,WeatherCatV1.14B232,2013-03-16 00:12:00,
2013-03-15 20:17:00,46.6,29.0,29.48,WNW,302,0.0,1.0,50,0.00,,,0.00,0,WeatherCatV1.14B232,2013-03-16 00:17:00,
2013-03-15 20:22:00,46.5,28.9,29.48,NW,308,0.0,2.0,50,0.00,,,0.00,0,WeatherCatV1.14B232,2013-03-16 00:22:00,
2013-03-15 20:27:00,46.4,28.8,29.49,West,281,0.0,2.0,50,0.00,,,0.00,0,WeatherCatV1.14B232,2013-03-16 00:27:00,
2013-03-15 20:32:00,46.4,28.8,29.49,WSW,252,2.0,4.0,50,0.00,,,0.00,0,WeatherCatV1.14B232,2013-03-16 00:32:00,
2013-03-15 20:37:00,46.3,29.2,29.49,WSW,252,0.0,2.0,51,0.00,,,0.00,0,WeatherCatV1.14B232,2013-03-16 00:37:00,
2013-03-15 20:42:00,46.3,29.2,29.49,WSW,254,0.0,0.0,51,0.00,,,0.00,0,WeatherCatV1.14B232,2013-03-16 00:42:00,
2013-03-15 20:47:00,46.2,29.1,29.49,West,273,0.0,0.0,51,0.00,,,0.00,0,WeatherCatV1.14B232,2013-03-16 00:47:00,
2013-03-15 20:52:00,46.1,29.5,29.49,West,273,0.0,0.0,52,0.00,,,0.00,0,WeatherCatV1.14B232,2013-03-16 00:52:00,
2013-03-15 20:57:00,46.1,29.5,29.49,West,273,0.0,1.0,52,0.00,,,0.00,0,WeatherCatV1.14B232,2013-03-16 00:57:00,
2013-03-15 21:02:00,46.0,29.4,29.50,WNW,288,1.0,2.0,52,0.00,,,0.00,0,WeatherCatV1.14B232,2013-03-16 01:02:00,
2013-03-15 21:07:00,46.0,29.8,29.50,SW,229,0.0,3.0,53,0.00,,,0.00,0,WeatherCatV1.14B232,2013-03-16 01:07:00,
2013-03-15 21:12:00,46.1,30.4,29.50,NNW,333,1.0,5.0,54,0.00,,,0.00,0,WeatherCatV1.14B232,2013-03-16 01:12:00,
2013-03-15 21:17:00,46.1,30.8,29.50,WNW,300,8.0,9.0,55,0.00,,,0.00,0,WeatherCatV1.14B232,2013-03-16 01:17:00,
2013-03-15 21:22:00,46.2,30.9,29.50,WNW,283,1.0,4.0,55,0.00,,,0.00,0,WeatherCatV1.14B232,2013-03-16 01:22:00,
2013-03-15 21:27:00,46.2,31.4,29.50,West,267,6.0,6.0,56,0.00,,,0.00,0,WeatherCatV1.14B232,2013-03-16 01:27:00,
2013-03-15 21:32:00,46.2,31.8,29.50,WNW,296,2.0,6.0,57,0.00,,,0.00,0,WeatherCatV1.14B232,2013-03-16 01:32:00,
2013-03-15 21:37:00,46.2,31.8,29.50,NNW,328,2.0,8.0,57,0.00,,,0.00,0,WeatherCatV1.14B232,2013-03-16 01:37:00,
2013-03-15 21:42:00,46.2,31.8,29.50,WNW,282,1.0,6.0,57,0.00,,,0.00,0,WeatherCatV1.14B232,2013-03-16 01:42:00,
2013-03-15 21:47:00,46.3,31.9,29.50,West,269,2.0,4.0,57,0.00,,,0.00,0,WeatherCatV1.14B232,2013-03-16 01:47:00,
2013-03-15 21:52:00,46.3,31.9,29.50,NW,325,2.0,2.0,57,0.00,,,0.00,0,WeatherCatV1.14B232,2013-03-16 01:52:00,
2013-03-15 21:57:00,46.3,31.9,29.50,SW,235,3.0,12.0,57,0.00,,,0.00,0,WeatherCatV1.14B232,2013-03-16 01:57:00,
2013-03-15 22:02:00,46.4,32.4,29.50,NW,304,3.0,8.0,58,0.00,,,0.00,0,WeatherCatV1.14B232,2013-03-16 02:02:00,
2013-03-15 22:07:00,46.4,32.0,29.50,West,265,7.0,11.0,57,0.00,,,0.00,0,WeatherCatV1.14B232,2013-03-16 02:07:00,
2013-03-15 22:12:00,46.5,32.1,29.50,NNW,333,5.0,10.0,57,0.00,,,0.00,0,WeatherCatV1.14B232,2013-03-16 02:12:00,
2013-03-15 22:17:00,46.5,32.1,29.50,NW,306,3.0,7.0,57,0.00,,,0.00,0,WeatherCatV1.14B232,2013-03-16 02:17:00,
2013-03-15 22:22:00,46.5,32.1,29.50,NNW,327,4.0,6.0,57,0.00,,,0.00,0,WeatherCatV1.14B232,2013-03-16 02:22:00,
2013-03-15 22:27:00,46.5,32.1,29.51,WSW,254,5.0,7.0,57,0.00,,,0.00,0,WeatherCatV1.14B232,2013-03-16 02:27:00,
2013-03-15 22:32:00,46.5,32.1,29.51,NNW,335,1.0,8.0,57,0.00,,,0.00,0,WeatherCatV1.14B232,2013-03-16 02:32:00,
2013-03-15 22:37:00,46.5,32.1,29.51,NW,311,1.0,2.0,57,0.00,,,0.00,0,WeatherCatV1.14B232,2013-03-16 02:37:00,
2013-03-15 22:42:00,46.3,32.3,29.51,NW,306,2.0,3.0,58,0.00,,,0.00,0,WeatherCatV1.14B232,2013-03-16 02:42:00,
2013-03-15 22:47:00,46.3,32.3,29.51,NW,310,2.0,3.0,58,0.00,,,0.00,0,WeatherCatV1.14B232,2013-03-16 02:47:00,
2013-03-15 22:52:00,46.2,32.2,29.51,WNW,295,2.0,2.0,58,0.00,,,0.00,0,WeatherCatV1.14B232,2013-03-16 02:52:00,
2013-03-15 22:57:00,46.1,32.2,29.52,WNW,294,1.0,3.0,58,0.00,,,0.00,0,WeatherCatV1.14B232,2013-03-16 02:57:00,
2013-03-15 23:02:00,46.0,32.1,29.52,West,277,0.0,4.0,58,0.00,,,0.00,0,WeatherCatV1.14B232,2013-03-16 03:02:00,
2013-03-15 23:07:00,46.0,32.1,29.52,West,277,1.0,3.0,58,0.00,,,0.00,0,WeatherCatV1.14B232,2013-03-16 03:07:00,
2013-03-15 23:12:00,45.8,31.9,29.52,NW,322,0.0,0.0,58,0.00,,,0.00,0,WeatherCatV1.14B232,2013-03-16 03:12:00,
2013-03-15 23:17:00,45.8,31.9,29.52,NW,321,0.0,1.0,58,0.00,,,0.00,0,WeatherCatV1.14B232,2013-03-16 03:17:00,
2013-03-15 23:22:00,45.6,32.1,29.52,NW,321,1.0,1.0,59,0.00,,,0.00,0,WeatherCatV1.14B232,2013-03-16 03:22:00,
2013-03-15 23:27:00,45.5,32.0,29.52,NE,40,2.0,2.0,59,0.00,,,0.00,0,WeatherCatV1.14B232,2013-03-16 03:27:00,
2013-03-15 23:32:00,45.2,32.1,29.52,NNW,340,0.0,1.0,60,0.00,,,0.00,0,WeatherCatV1.14B232,2013-03-16 03:32:00,
2013-03-15 23:37:00,45.1,32.1,29.52,NNW,348,1.0,3.0,60,0.00,,,0.00,0,WeatherCatV1.14B232,2013-03-16 03:37:00,
2013-03-15 23:42:00,44.9,31.9,29.52,North,5,2.0,4.0,60,0.00,,,0.00,0,WeatherCatV1.14B232,2013-03-16 03:42:00,
2013-03-15 23:47:00,44.8,32.2,29.52,NNW,344,4.0,4.0,61,0.00,,,0.00,0,WeatherCatV1.14B232,2013-03-16 03:47:00,
2013-03-15 23:52:00,44.7,32.1,29.52,NNW,348,2.0,5.0,61,0.00,,,0.00,0,WeatherCatV1.14B232,2013-03-16 03:52:00,
2013-03-15 23:57:00,44.5,31.9,29.53,North,9,1.0,4.0,61,0.00,,,0.00,0,WeatherCatV1.14B232,2013-03-16 03:57:00,